Погода в Даматуру

Нигерия     11°44′27″N   11°57′51″E
темп.,
°C
ветер,
м/с
пор.,
м/с
влажн.,
%
обл.,
%
осадки,
мм/ч
давл.,
гПа
погр.,
м
11 мая, вт
вт1101:00+27юз6125513 0.0 1009288
04:00+25юз495919 0.0 1009178
07:00+27юз485514 0.0 1011211
10:00+35зюз55295 0.0 10111081
13:00+39з25175 0.0 10084247
16:00+41в231332 0.0 10054372
19:00+36ююз221664 0.0 100616
22:00+34юв222017 0.0 100827
12 мая, ср
ср1201:00+33юв1122100 0.0 100711
04:00+31юз511340 0.0 1007207
07:00+30юз610508 0.0 1009374
10:00+37юз65305 0.0 10101288
13:00+40ююз582168 0.0 10074618
16:00+32з8103561 0.0 1005244
19:00+32ююз5103263 0.0 1006216
22:00+30ююз510415 0.0 1008223
13 мая, чт
чт1301:00+27юз484587 0.0 1007137
04:00+27юз5114374 0.0 1007214
07:00+28юз510415 0.0 1009421
10:00+35ююз763514 0.0 10091179
13:00+39юз542658 0.0 10072053
16:00+40ююз361973 0.0 10033948
19:00+33ю81135100 0.0 1005350
22:00+29ююз6115274 0.0 1007217
14 мая, пт
пт1401:00+29з11485 0.0 100713
04:00+29ююз71043100 0.0 1007373
07:00+29ююз5945100 0.0 1009488
10:00+34юз8838100 0.0 1009799
13:00+38юз4326100 0.0 10071900
16:00+40в27195 0.0 10043805
19:00+32ююв9143793 0.0 1006433
22:00+31ю2238100 0.0 100832
15 мая, сб
сб1501:00+29юз224485 0.0 100817
04:00+31ююз5938100 0.0 1007238
07:00+29юз4744100 0.0 1009265
10:00+35юз553238 0.0 1010945
13:00+39ююз45235 0.0 10072901
16:00+26ююв81163100 1.1 1007219
19:00+31ю71039100 2.1 1007281
22:00+30ююз354554 0.0 100793